[[{"header":{"parameterUnit":"m.s-1","parameterCategory":1,"la1":30.2991,"la2":30.254,"lo1":-89.0895,"lo2":-89.0444,"dy":0.0017,"dx":0.0017,"nx":28,"ny":28,"refTime":"2025-01-26T09:00:00:Z","depth":0,"parameterNumber":2,"parameterNumberName":"U-component_of_WINDS"},"data":[0,0,0,0,0,0,0,0,0,0,0,0,0,0,0,0,0,0,0,0,0,0,0,0,0,0,0,0,0,0,0,0,0,0,0,0,0,0,0,0,0,0,0,0,0,0,0,0,0,0,0,0,0,0,0,0,0,0,-0.2428,-0.2429,0,-0.2526,-0.2528,-0.2529,-0.2603,-0.2604,-0.2604,-0.2605,-0.2704,-0.2706,-0.2708,0,0,0,0,0,0,0,0,0,0,0,0,0,-0.2301,-0.2303,-0.2427,-0.2429,-0.243,-0.2526,-0.2528,-0.2529,-0.2603,-0.2604,-0.2604,-0.2605,-0.2704,-0.2706,-0.2708,0,0,0,0,0,0,0,0,0,0,0,0,0,-0.2373,-0.2303,-0.2427,-0.2478,-0.2484,-0.2526,-0.2528,-0.2529,-0.2603,-0.2604,-0.2605,-0.2606,-0.2703,-0.2706,-0.2709,-0.2707,0,0,-0.2718,-0.2719,0,0,0,0,0,0,0,0,-0.2369,-0.2378,-0.247,-0.2475,-0.2481,-0.2553,-0.252,-0.2589,-0.2602,-0.2558,-0.2605,-0.2606,-0.2653,-0.266,-0.2677,-0.2712,-0.2716,-0.2718,-0.272,-0.2721,-0.2722,0,0,0,0,0,0,0,-0.2364,-0.2374,-0.2467,-0.2471,-0.2478,-0.2496,-0.2507,-0.2533,-0.2598,-0.2562,-0.2567,-0.2578,-0.2656,-0.2673,-0.2679,-0.2717,-0.2718,-0.2721,-0.2723,-0.2724,-0.2756,-0.2755,0,0,0,0,0,0,-0.2351,-0.2369,-0.2463,-0.247,-0.2427,-0.2497,-0.251,-0.2529,-0.2598,-0.261,-0.2577,-0.2581,-0.2668,-0.2676,-0.2683,-0.2685,-0.2721,-0.2724,-0.2726,-0.2757,-0.2756,-0.2755,0,0,0,0,0,0,-0.2348,-0.2359,-0.2459,-0.2421,-0.2435,-0.2499,-0.2519,-0.2531,-0.2548,-0.261,-0.2622,-0.2582,-0.2669,-0.2679,-0.2701,-0.269,-0.2726,-0.2728,-0.2758,-0.2756,-0.2755,-0.2689,0,0,0,0,0,0,-0.2344,-0.2357,-0.2358,-0.2421,-0.2437,-0.2475,-0.2519,-0.2532,-0.2553,-0.2559,-0.2618,-0.2629,-0.267,-0.2696,-0.2704,-0.2694,-0.2731,-0.2759,-0.2757,-0.2756,-0.2692,-0.2686,-0.268,0,0,0,0,0,-0.234,-0.2335,-0.2357,-0.2368,-0.2439,-0.2475,-0.2484,-0.2532,-0.2552,-0.2552,-0.2592,-0.2627,-0.269,-0.2697,-0.2707,-0.2698,-0.276,-0.2758,-0.2756,-0.2695,-0.2687,-0.268,0,0,0,0,0,0,-0.2268,-0.2344,-0.237,-0.2386,-0.2423,-0.2487,-0.2489,-0.2522,-0.2554,-0.2559,-0.2617,-0.263,-0.2645,-0.2674,-0.2681,-0.27,-0.2729,-0.2729,-0.268,-0.2673,-0.2666,-0.2658,-0.2733,0,0,0,0,0,-0.2255,-0.2278,-0.2343,-0.235,-0.2368,-0.2425,-0.2443,-0.2477,-0.2518,-0.2534,-0.2576,-0.2614,-0.2642,-0.2659,-0.2689,-0.2698,-0.2711,-0.2697,-0.269,-0.2685,-0.2683,-0.2689,-0.2683,-0.2747,-0.2748,-0.2748,0,0,-0.2226,-0.227,-0.2281,-0.2337,-0.237,-0.2392,-0.2438,-0.246,-0.2476,-0.2537,-0.256,-0.2592,-0.2638,-0.2653,-0.2662,-0.2678,-0.2669,-0.2682,-0.2677,-0.2679,-0.2686,-0.268,-0.2675,-0.2746,-0.2746,-0.2747,0,0,-0.2185,-0.2222,-0.2232,-0.2264,-0.2314,-0.2352,-0.2355,-0.2414,-0.2438,-0.2462,-0.2508,-0.2528,-0.2576,-0.2607,-0.2629,-0.26,-0.2633,-0.2609,-0.2574,-0.2579,-0.2574,-0.257,-0.2559,-0.2554,-0.2607,-0.2607,-0.2607,0,-0.2143,-0.2179,-0.2232,-0.2251,-0.2274,-0.2331,-0.2341,-0.237,-0.2426,-0.244,-0.2458,-0.2519,-0.2555,-0.2577,-0.257,-0.2587,-0.259,-0.2601,-0.2571,-0.2567,-0.2564,-0.2554,-0.2549,-0.2604,-0.2604,-0.2604,-0.2605,0,-0.2124,-0.2148,-0.215,-0.2204,-0.2227,-0.2241,-0.2296,-0.2314,-0.2346,-0.2382,-0.2405,-0.245,-0.2489,-0.2498,-0.2529,-0.2525,-0.2533,-0.256,-0.259,-0.2553,-0.2545,-0.2541,-0.2599,-0.26,-0.2601,-0.2602,0,0,-0.204,-0.2124,-0.2123,-0.2148,-0.2208,-0.2227,-0.2244,-0.2283,-0.2296,-0.2334,-0.2348,-0.2388,-0.2413,-0.2438,-0.2474,-0.2479,-0.2452,-0.2505,-0.2507,-0.2492,-0.2448,-0.2426,-0.2421,-0.2475,-0.2474,-0.2474,-0.2444,0,-0.2007,-0.2041,-0.2089,-0.2106,-0.2129,-0.2184,-0.2198,-0.2236,-0.227,-0.2294,-0.2332,-0.2359,-0.2391,-0.2406,-0.2414,-0.2453,-0.2443,-0.2457,-0.2488,-0.2488,-0.2473,-0.2416,-0.2393,-0.2363,-0.2441,-0.244,-0.244,0,-0.1973,-0.2008,-0.2027,-0.2085,-0.2096,-0.2108,-0.2148,-0.217,-0.2214,-0.2239,-0.2266,-0.2306,-0.2326,-0.2354,-0.2382,-0.239,-0.2406,-0.2427,-0.2427,-0.2431,-0.246,-0.2416,-0.2354,-0.2349,-0.2435,-0.2436,-0.2436,0,-0.1907,-0.1959,-0.1977,-0.1997,-0.2065,-0.2072,-0.2101,-0.2146,-0.2166,-0.2201,-0.2215,-0.2251,-0.2271,-0.2298,-0.2345,-0.2362,-0.2368,-0.24,-0.2388,-0.2386,-0.2385,-0.2384,-0.2322,-0.2398,-0.2398,-0.2398,-0.2398,0,-0.1864,-0.1874,-0.1949,-0.1959,-0.1971,-0.2027,-0.2037,-0.2071,-0.2111,-0.2129,-0.2179,-0.2195,-0.2258,-0.2281,-0.2318,-0.2335,-0.2344,-0.2364,-0.2373,-0.2358,-0.2355,-0.2368,-0.2371,-0.2397,-0.2397,-0.2397,-0.2398,0,-0.1792,-0.1843,-0.1866,-0.1929,-0.1945,-0.1951,-0.2005,-0.2017,-0.2055,-0.2077,-0.2086,-0.2145,-0.2174,-0.2225,-0.227,-0.2295,-0.2304,-0.2321,-0.2288,-0.2294,-0.2278,-0.2278,-0.2221,-0.2216,-0.2295,-0.2295,-0.2294,0,-0.1761,-0.1769,-0.1833,-0.1849,-0.1876,-0.1901,-0.1922,-0.1978,-0.1998,-0.2049,-0.2055,-0.2088,-0.2118,-0.2163,-0.2209,-0.2243,-0.2261,-0.2239,-0.2266,-0.2251,-0.2259,-0.2257,-0.2257,-0.2232,-0.223,-0.223,-0.2229,0,-0.1699,-0.1723,-0.1752,-0.179,-0.1814,-0.1846,-0.188,-0.189,-0.1954,-0.1974,-0.2005,-0.2028,-0.2074,-0.2106,-0.2147,-0.2176,-0.2212,-0.222,-0.2219,-0.2202,-0.2182,-0.2191,-0.2269,-0.2221,-0.2221,-0.2222,-0.2222,-0.2223,-0.1645,-0.1655,-0.1701,-0.1731,-0.1764,-0.1795,-0.1809,-0.1849,-0.1876,-0.1918,-0.195,-0.1978,-0.2022,-0.2081,-0.2108,-0.2131,-0.2148,-0.2146,-0.2145,-0.2143,-0.2137,-0.218,-0.2139,-0.2139,-0.2139,-0.214,-0.214,0,-0.1584,-0.1617,-0.1644,-0.1691,-0.1715,-0.1749,-0.1789,-0.1806,-0.1831,-0.1869,-0.1897,-0.1933,-0.1965,-0.2014,-0.205,-0.2059,-0.2076,-0.2066,-0.2065,-0.2071,-0.212,-0.2117,-0.2051,-0.2051,-0.2051,-0.2051,-0.2051,-0.2051,-0.1555,-0.1573,-0.1603,-0.1637,-0.167,-0.1699,-0.1719,-0.1748,-0.1778,-0.1816,-0.1843,-0.1875,-0.1918,-0.1957,-0.1988,-0.2002,-0.2012,-0.1996,-0.2014,-0.2059,-0.2067,-0.2075,-0.2072,-0.1998,-0.1998,-0.1963,-0.1962,-0.1962]},{"header":{"parameterUnit":"m.s-1","parameterCategory":1,"la1":30.2991,"la2":30.254,"lo1":-89.0895,"lo2":-89.0444,"dy":0.0017,"dx":0.0017,"nx":28,"ny":28,"refTime":"2025-01-26T09:00:00:Z","depth":0,"parameterNumber":3,"parameterNumberName":"V-component_of_WINDS"},"data":[0,0,0,0,0,0,0,0,0,0,0,0,0,0,0,0,0,0,0,0,0,0,0,0,0,0,0,0,0,0,0,0,0,0,0,0,0,0,0,0,0,0,0,0,0,0,0,0,0,0,0,0,0,0,0,0,0,0,3.5048,3.5049,0,3.5149,3.515,3.5151,3.5151,3.515,3.5148,3.5147,3.5248,3.5252,3.5256,0,0,0,0,0,0,0,0,0,0,0,0,0,3.4851,3.4854,3.5048,3.5049,3.505,3.5149,3.515,3.5152,3.5151,3.5149,3.5148,3.5146,3.5247,3.5252,3.5256,0,0,0,0,0,0,0,0,0,0,0,0,0,3.4942,3.4855,3.5047,3.5062,3.5064,3.5149,3.515,3.5152,3.5151,3.5149,3.5147,3.5146,3.5245,3.5251,3.5257,3.5333,0,0,3.5275,3.5278,0,0,0,0,0,0,0,0,3.4937,3.495,3.5058,3.5061,3.5064,3.5135,3.5118,3.5213,3.5152,3.5118,3.5147,3.5145,3.5212,3.5221,3.5244,3.5338,3.5342,3.5276,3.5279,3.5282,3.5283,0,0,0,0,0,0,0,3.4931,3.4945,3.5088,3.506,3.5063,3.5062,3.5073,3.5136,3.5175,3.5121,3.5121,3.5133,3.5213,3.5238,3.5246,3.5344,3.5275,3.5281,3.5284,3.5287,3.5504,3.5506,0,0,0,0,0,0,3.4922,3.494,3.5084,3.5091,3.4994,3.5067,3.508,3.5114,3.5174,3.5182,3.5135,3.5133,3.5229,3.5239,3.525,3.5343,3.5282,3.5287,3.5291,3.5502,3.5505,3.5507,0,0,0,0,0,0,3.4918,3.4935,3.508,3.5015,3.5034,3.5073,3.5112,3.5117,3.5143,3.5185,3.5192,3.5154,3.5228,3.5242,3.5312,3.5346,3.529,3.5295,3.5499,3.5503,3.5506,3.553,0,0,0,0,0,0,3.4912,3.4933,3.4963,3.5016,3.5037,3.5142,3.5114,3.5121,3.5153,3.5151,3.5204,3.5211,3.5228,3.5304,3.5318,3.5354,3.53,3.5497,3.5501,3.5505,3.5526,3.5533,3.554,0,0,0,0,0,3.4905,3.4966,3.4965,3.4982,3.5076,3.5144,3.5156,3.5175,3.5156,3.5186,3.5213,3.5209,3.534,3.5311,3.5327,3.5365,3.5494,3.55,3.5505,3.5523,3.5532,3.554,0,0,0,0,0,0,3.4915,3.4973,3.4973,3.5053,3.5094,3.5144,3.5183,3.5184,3.5231,3.5227,3.5247,3.5259,3.533,3.5354,3.5321,3.5441,3.5415,3.5423,3.5423,3.5432,3.5439,3.5432,3.5305,0,0,0,0,0,3.4927,3.4978,3.5025,3.5091,3.5112,3.5144,3.5174,3.5185,3.5228,3.5245,3.5277,3.5318,3.5369,3.5401,3.545,3.5529,3.554,3.5563,3.557,3.5575,3.5582,3.5626,3.5636,3.5524,3.5524,3.5524,0,0,3.4951,3.4989,3.502,3.5094,3.5127,3.5179,3.5158,3.5214,3.5253,3.5253,3.5323,3.5347,3.5394,3.547,3.5504,3.5492,3.5616,3.5581,3.5585,3.559,3.5632,3.5642,3.5652,3.5527,3.5527,3.5526,0,0,3.5023,3.5057,3.5115,3.5149,3.5199,3.522,3.5234,3.5284,3.5301,3.5371,3.5372,3.5417,3.5504,3.5537,3.5565,3.5648,3.5647,3.5663,3.5699,3.5741,3.575,3.5758,3.5788,3.5798,3.567,3.567,3.567,0,3.5047,3.5127,3.5145,3.5202,3.5234,3.5236,3.5295,3.5327,3.539,3.5412,3.5397,3.5505,3.5537,3.562,3.564,3.5663,3.5679,3.5658,3.5748,3.5756,3.5763,3.5792,3.5803,3.5672,3.5672,3.5672,3.5672,0,3.5153,3.5208,3.5249,3.5312,3.5348,3.5405,3.5431,3.5466,3.5473,3.5495,3.5565,3.5603,3.5659,3.568,3.5687,3.5763,3.5754,3.5743,3.5717,3.5776,3.5803,3.5814,3.5675,3.5674,3.5673,3.5673,0,0,3.5236,3.5307,3.5322,3.535,3.5405,3.5447,3.5504,3.556,3.5589,3.5632,3.568,3.5752,3.5742,3.5774,3.5785,3.5821,3.5884,3.5806,3.5807,3.582,3.5971,3.598,3.5992,3.5883,3.5885,3.5887,3.5967,0,3.5314,3.5416,3.5434,3.5523,3.5574,3.5576,3.5625,3.5664,3.5685,3.5731,3.5753,3.5805,3.5788,3.5807,3.5843,3.5869,3.5915,3.5863,3.5927,3.593,3.5917,3.6006,3.6016,3.609,3.5978,3.598,3.5981,0,3.5419,3.5466,3.556,3.5608,3.563,3.5674,3.5726,3.577,3.5813,3.5826,3.5861,3.5867,3.5925,3.5895,3.5975,3.5939,3.5966,3.5982,3.5985,3.5993,3.596,3.6017,3.6114,3.6126,3.5998,3.5997,3.5995,0,3.5471,3.5557,3.5624,3.5648,3.5705,3.5736,3.5761,3.5803,3.5835,3.588,3.5901,3.5951,3.5979,3.6018,3.6037,3.6013,3.6115,3.6087,3.6127,3.6126,3.6149,3.6148,3.6253,3.6165,3.6165,3.6164,3.6164,0,3.5557,3.5614,3.5648,3.569,3.5754,3.5773,3.5836,3.586,3.5896,3.5942,3.5946,3.5989,3.6011,3.6056,3.6071,3.6135,3.6147,3.6159,3.6162,3.6159,3.6158,3.6178,3.6173,3.6167,3.6167,3.6166,3.6166,0,3.5626,3.5651,3.5725,3.5773,3.5786,3.5831,3.5872,3.5912,3.5932,3.599,3.6005,3.6037,3.609,3.6113,3.6178,3.6188,3.6261,3.626,3.6247,3.6248,3.6287,3.6284,3.641,3.6428,3.6327,3.6328,3.6329,0,3.568,3.5724,3.5777,3.5809,3.5835,3.5885,3.5918,3.5937,3.5971,3.6023,3.6056,3.611,3.6154,3.6239,3.6268,3.6318,3.6318,3.6359,3.6326,3.6321,3.632,3.6317,3.6322,3.6366,3.6367,3.6367,3.6368,0,3.5773,3.5783,3.5831,3.5883,3.5922,3.5963,3.6004,3.6029,3.6054,3.6091,3.6147,3.6181,3.6248,3.6301,3.6352,3.6377,3.6377,3.6378,3.639,3.6388,3.6379,3.6385,3.6265,3.6375,3.6375,3.6374,3.6374,3.6374,3.5837,3.5877,3.592,3.5973,3.6005,3.6043,3.6083,3.6108,3.6155,3.6211,3.6219,3.6278,3.6319,3.6388,3.6414,3.646,3.6449,3.6467,3.6471,3.6475,3.6478,3.6371,3.6469,3.6469,3.6468,3.6468,3.6468,0,3.5931,3.5959,3.6007,3.6064,3.6105,3.6101,3.6145,3.618,3.6232,3.627,3.6314,3.6377,3.6428,3.646,3.6511,3.6541,3.6542,3.6554,3.6553,3.6558,3.6484,3.6469,3.6552,3.6552,3.6552,3.6552,3.6552,3.6552,3.5985,3.6052,3.6067,3.615,3.6176,3.6235,3.6261,3.6295,3.6325,3.6396,3.6439,3.6459,3.6495,3.6548,3.6594,3.6602,3.6621,3.6634,3.6641,3.6572,3.6563,3.6555,3.6541,3.6638,3.6638,3.6711,3.6712,3.6712]}]]